Location: Caltech
(34.1382°N, 118.1253°W)
Time: 13:49:15
(UTC-07:00)

OPAL - Visible Passes

Search period start: 24 April 2018 00:00
Search period end: 04 May 2018 00:00
Orbit: 743 x 796 km, 100.2° (Epoch: 23 April)

Date Brightness Start Highest point End Pass type
(mag) Time Alt. Az. Time Alt. Az. Time Alt. Az.
24 Apr 9.5 20:46:35 11° ENE 20:47:23 11° ENE 20:49:01 10° NE visible
24 Apr 8.2 22:26:52 51° NNW 22:26:52 51° NNW 22:30:43 10° NNW visible
25 Apr 8.1 21:50:49 44° NE 21:50:49 44° NE 21:55:03 10° N visible
25 Apr 10.0 23:31:06 14° WNW 23:31:06 14° WNW 23:32:31 10° NW visible
26 Apr 9.0 21:14:46 21° ENE 21:14:57 21° ENE 21:18:40 10° NNE visible
26 Apr 9.0 22:55:03 32° WNW 22:55:03 32° WNW 22:58:17 10° NNW visible
27 Apr 7.9 22:19:00 59° N 22:19:00 59° N 22:23:05 10° NNW visible
28 Apr 8.3 21:42:57 36° ENE 21:42:57 36° ENE 21:47:15 10° N visible
28 Apr 9.8 23:23:13 19° WNW 23:23:13 19° WNW 23:25:24 10° NW visible
29 Apr 9.2 21:06:53 16° ENE 21:07:27 17° ENE 21:10:34 10° NNE visible
29 Apr 8.6 22:47:10 41° WNW 22:47:10 41° WNW 22:50:49 10° NNW visible
30 Apr 7.8 22:11:08 59° NNE 22:11:08 59° NNE 22:15:26 10° N visible
01 May 8.5 21:35:04 29° ENE 21:35:04 29° ENE 21:39:24 10° N visible
01 May 9.4 23:15:21 23° WNW 23:15:21 23° WNW 23:18:07 10° NW visible
02 May 9.4 20:59:02 13° ENE 20:59:57 13° ENE 21:02:14 10° NE visible
02 May 8.2 22:39:18 51° NW 22:39:18 51° NW 22:43:16 10° NNW visible
03 May 7.8 22:03:16 51° NE 22:03:16 51° NE 22:07:43 10° N visible
03 May 10.1 23:43:32 13° WNW 23:43:32 13° WNW 23:44:39 10° WNW visible
